Regional Weather Roundup
Issued by NWS Midland/Odessa, TX

Skip options and go directly to product.
Home | Oldest Version | Previous Version | Current Version | All | Text Only | Save Text | Print | Product List | Glossary On

Skip product version selection by date and time.   
228
ASUS44 KMAF 272310
RWRMAF
MIDLAND AREA WEATHER ROUNDUP
NATIONAL WEATHER SERVICE MIDLAND TX
500 PM CST MON FEB 27 2017

...IN SOUTHWEST TEXAS AND SOUTHEAST NEW MEXICO...

CITY           SKY/WX    TMP DP  RH WIND       PRES   REMARKS
ALPINE         CLOUDY    74  18  12 SW13G18   30.00S
ANDREWS        FAIR      74  20  13 SW23G29   29.86S
ARTESIA        MOSUNNY   70  18  13 SW30G38   29.83R
BIG SPRING     SUNNY     78  20  11 SW21G29   29.86S
CARLSBAD       MOSUNNY   71  18  13 W21G28    29.85R
DRYDEN           N/A     85  23  10 S15       29.83S
FORT STOCKTON  MOSUNNY   81  14   8 W17G23    29.86S
GUAD PASS      CLOUDY    63  20  19 W35G56    29.93R
HOBBS          SUNNY     70  18  13 SW18      29.86R
MARFA          SUNNY     73  20  13 W20       29.98
MIDLAND AIRPK  SUNNY     79  19  11 W17G23    29.85S
MIDLAND INTL   SUNNY     78  16   9 SW16G25   29.85R
ODESSA         SUNNY     77  17  10 W24       29.86R
PECOS          MOSUNNY   79  19  11 W13G20    29.85R
PRESIDIO       FAIR      82  25  12 W9G16     29.90S
SEMINOLE       SUNNY     73  22  14 SW15G25   29.86R
SNYDER         SUNNY     78  23  12 SW20      29.84R
WINK           CLOUDY    77  16  10 W12       29.83S
$$
...OTHER STATIONS IN TEXAS...

CITY           SKY/WX    TMP DP  RH WIND       PRES   REMARKS
ABILENE        SUNNY     77  47  34 S15       29.83F
AMARILLO       SUNNY     69  16  13 SW22G36   29.76F
AUSTIN         MOSUNNY   82  65  56 S10       29.86F
BROWNSVILLE    SUNNY     82  70  66 SE17G26   29.86S
CORPUS CHRISTI PTSUNNY   80  69  69 SE17      29.87S
DALLAS FTW     PTSUNNY   80  63  55 S20       29.81F
DEL RIO        MOSUNNY   85  41  21 E10       29.81F
EL PASO        PTSUNNY   72  19  13 SW16G28   29.89F
HOUSTON INT    PTSUNNY   78  68  71 SE15      29.93R
LUBBOCK        CLOUDY    73  14  10 SW18      29.80S
SAN ANGELO     SUNNY     83  36  18 SW17      29.83S
SAN ANTONIO    PTSUNNY   79  63  57 S13       29.88S
WACO           SUNNY     76  64  66 S13       29.86S
WICHITA FALLS  NOT AVBL
$$
...OTHER LOCATIONS IN NEW MEXICO...

CITY           SKY/WX    TMP DP  RH WIND       PRES   REMARKS
ALAMAGORDO     SUNNY     63  23  22 SW13      29.93S
ALBUQUERQUE    CLOUDY    58  11  15 SW14G20   29.83S
CANNON AFB     CLOUDY    67  11  11 W23G32    29.79S
CLOVIS         SUNNY     68  16  13 SW20G30   29.80S
HOLLOMAN AFB   CLOUDY    65  19  16 SW17      29.94F
ROSWELL        MOSUNNY   75   2   6 W14         N/A
RUIDOSO        CLOUDY    52   9  17 SW38G48   29.90F
SANTA FE       CLOUDY    51  17  26 SW13G18   29.85F
TRUTH OR CONSE MOSUNNY   63   4   9 SW22G29   29.85S
TUCUMCARI      SUNNY     70   9   9 W28G36    29.74R
$$

  • National Weather Service
  • Southern Region Headquarters
  • 819 Taylor Street, Room 10A06
  • Fort Worth, TX 76102
  • Page Author: NWS Fort Worth
  • Web Master: SR-SRH.Webmaster@noaa.gov
  •  
  • Page last modified: 30-Sep-2016 6:36 PM UTC
USA.gov is the U.S. government's official web portal to all federal, state and local government web resources and services.